Temp
76 76 74 73 74 70 69 69 67 66 66 64 65 65 67 66 65 65 67 68 65 64 64 64 63 63 62 61 62 61 58 56 51 54 56 57 56 55 56 55 56 54 57
76 75 74 73 73 70 72 69 69 68 68 68 68 68 67 68 68 68 67 69 68 66 66 65 61 65 59 59 58 58 57 56 54 48 52 52 51 51 52 50 54 57 56
76 75 72 72 70 70 72 71 71 70 69 70 70 70 70 67 64 65 66 66 65 64 62 60 57 57 56 55 57 54 53 52 51 48 48 52 51 50 48 50 51 52 54
74 74 73 72 70 70 70 70 69 70 70 70 70 66 63 58 57 59 61 62 63 64 61 57 56 53 51 50 52 50 49 48 47 47 47 47 48 50 49 46 44 48 48
72 72 71 72 72 71 71 69 69 69 69 70 68 61 57 55 52 50 53 57 59 60 59 58 53 54 54 52 50 47 46 46 45 44 43 45 45 44 42 44 43 44 46
71 70 73 72 73 69 68 69 68 67 64 64 59 56 53 53 47 49 50 51 58 57 54 53 54 50 52 52 52 52 50 45 43 42 42 41 42 42 43 43 42 41 40
71 72 73 72 72 69 69 66 66 63 59 59 53 51 48 47 46 46 48 52 55 52 51 51 53 50 48 48 49 50 50 50 49 44 41 41 42 43 43 42 42 42 42
72 71 69 69 68 66 62 60 60 59 58 56 52 49 46 46 45 45 46 54 55 54 52 50 49 46 44 44 45 47 48 48 47 48 45 45 45 45 45 44 44 44 46
68 65 67 64 62 62 60 57 56 55 55 52 51 50 48 45 44 44 46 54 52 51 48 46 47 45 43 43 43 45 45 46 50 47 46 46 45 45 46 43 41 41 42
66 66 62 62 60 58 57 56 58 55 56 55 52 51 49 47 44 44 44 51 48 48 46 43 44 43 43 42 42 43 42 43 42 43 44 45 46 46 49 45 44 42 42
64 61 58 57 56 59 58 58 56 55 54 54 50 48 49 49 46 44 44 48 46 46 45 45 43 43 42 41 42 43 41 42 43 43 44 44 44 46 47 47 47 45 43
59 55 52 52 53 54 53 53 52 52 53 52 50 49 50 50 47 45 44 44 45 44 43 45 45 42 42 42 43 42 42 43 45 44 42 42 42 43 45 47 48 47 48
55 51 49 49 48 48 48 50 50 52 57 56 56 54 52 50 49 46 45 45 46 45 45 45 44 43 43 45 44 45 46 47 46 42 41 41 42 43 44 45 46 47 47
50 49 47 45 45 45 48 50 49 49 53 53 52 51 50 47 45 46 48 48 47 46 46 44 43 42 44 45 47 47 47 46 43 41 41 42 43 43 44 45 45 45 43
50 49 47 45 44 45 45 48 48 44 44 46 48 47 46 44 42 41 41 43 43 43 43 42 40 40 39 40 43 43 44 43 42 42 42 43 43 45 45 46 45 44 42
50 48 46 48 49 53 49 46 40 41 41 40 40 43 45 41 40 40 40 40 40 41 44 41 40 40 40 40 40 41 43 44 45 44 44 44 44 44 44 45 45 43 42
50 49 51 51 55 52 49 49 46 42 42 41 41 41 40 39 40 40 39 41 40 41 40 39 39 39 40 41 42 42 43 45 46 45 45 45 45 45 45 44 43 43 41
51 46 56 60 57 56 57 54 51 50 49 47 42 43 41 41 41 41 40 42 43 43 41 40 39 40 40 41 42 43 44 44 44 44 45 45 45 44 44 43 43 42 41
56 59 59 57 60 57 56 52 52 51 49 49 51 48 47 43 42 41 44 46 43 42 42 42 42 41 41 41 41 41 42 42 43 45 46 46 46 45 44 44 43 38 40
59 51 50 58 59 57 53 51 52 50 49 49 48 47 49 46 47 47 48 45 44 43 44 43 43 43 42 42 42 43 43 44 45 46 46 46 46 45 44 44 44 43 42
61 65 44 60 58 54 52 53 51 51 50 49 48 45 34 47 46 46 46 45 45 45 45 45 45 44 44 43 43 43 44 45 46 45 46 46 47 46 47 46 45 45 45
66 65 61 58 56 52 53 52 50 51 51 50 48 46 37 50 48 47 47 47 47 47 47 46 47 48 48 47 46 47 46 47 49 49 49 48 48 49 48 47 46 47 47
63 62 59 56 54 47 52 52 50 52 52 49 46 48 49 48 48 48 48 49 48 48 48 49 50 50 52 51 51 49 47 46 47 49 49 50 50 49 49 50 50 48 48
64 60 57 55 54 52 51 51 51 45 49 48 45 49 50 47 46 46 50 50 49 50 53 54 53 52 50 52 54 55 52 46 48 49 52 52 52 50 52 52 52 52 50
61 58 55 53 52 50 50 50 50 50 52 50 48 51 51 50 47 46 48 54 52 52 56 56 56 56 57 56 53 52 40 35 43 37 49 53 54 56 55 53 53 52 51
59 56 55 54 52 52 50 49 49 50 51 52 52 51 52 52 50 53 49 51 51 53 54 55 58 57 56 54 50 39 36 36 42 38 49 56 57 55 55 53 55 53 54
MSLP
1010.01 1009.70 1009.41 1008.90 1008.74 1008.92 1009.12 1009.26 1009.27 1009.36 1009.27 1009.12 1009.02 1008.99 1008.78 1009.00 1009.11 1008.99 1008.71 1008.64 1008.85 1008.94 1009.01 1009.04 1009.08 1009.05 1009.27 1009.46 1009.48 1009.30 1009.44 1009.52 1009.72 1009.56 1009.49 1009.49 1009.57 1009.64 1009.83 1009.82 1009.60 1009.58 1009.31
1010.05 1009.70 1009.56 1009.29 1008.90 1008.84 1008.73 1009.01 1009.11 1009.25 1009.18 1009.04 1009.00 1008.89 1008.89 1008.65 1008.64 1008.63 1008.50 1008.38 1008.41 1008.64 1008.71 1008.77 1009.13 1009.37 1009.66 1009.81 1009.84 1009.78 1009.89 1010.12 1010.47 1010.29 1010.18 1010.27 1010.14 1010.32 1010.29 1010.00 1009.58 1009.11 1008.84
1009.93 1009.61 1009.42 1009.11 1009.02 1008.95 1008.56 1008.55 1008.63 1008.58 1008.60 1008.35 1008.23 1008.11 1008.18 1008.78 1009.09 1009.04 1008.95 1008.97 1008.86 1008.78 1009.02 1009.57 1010.02 1010.05 1010.25 1010.33 1010.38 1010.56 1010.75 1010.93 1010.78 1010.66 1010.43 1010.58 1010.43 1010.32 1010.05 1009.65 1009.47 1009.10 1008.51
1010.22 1009.61 1009.08 1008.80 1008.68 1008.46 1008.51 1008.38 1008.21 1008.14 1008.15 1007.93 1007.95 1008.55 1009.37 1010.14 1010.57 1010.49 1010.13 1009.74 1009.52 1009.43 1009.68 1010.22 1010.61 1010.93 1011.18 1011.32 1011.25 1011.33 1011.39 1011.36 1011.10 1010.97 1010.75 1010.59 1010.40 1010.26 1010.20 1010.02 1009.76 1009.38 1009.03
1010.40 1009.73 1009.01 1008.35 1008.27 1008.17 1008.00 1008.22 1008.12 1008.05 1007.91 1007.83 1008.15 1009.41 1010.41 1011.01 1011.91 1011.98 1011.63 1010.95 1010.42 1009.95 1010.06 1010.52 1011.26 1011.52 1011.63 1011.80 1011.97 1011.89 1011.70 1011.42 1011.22 1011.11 1010.96 1010.85 1010.77 1010.71 1010.66 1010.47 1010.13 1009.65 1008.98
1010.21 1009.65 1009.00 1008.15 1007.76 1007.97 1008.02 1007.95 1008.01 1008.08 1008.34 1008.57 1009.35 1010.36 1011.27 1012.06 1012.51 1012.43 1012.42 1011.86 1011.04 1010.71 1010.96 1011.43 1011.66 1012.04 1011.97 1011.96 1011.87 1011.67 1011.42 1011.23 1011.28 1011.32 1011.29 1011.17 1010.99 1010.83 1010.61 1010.49 1010.26 1009.76 1009.19
1010.02 1009.33 1008.68 1008.05 1007.81 1007.96 1007.97 1007.94 1007.88 1008.20 1008.94 1009.39 1009.79 1010.82 1012.10 1012.94 1012.52 1012.58 1012.31 1011.71 1011.43 1011.58 1011.82 1011.83 1011.77 1012.33 1012.28 1012.34 1012.28 1011.89 1011.60 1011.56 1011.48 1011.43 1011.27 1011.16 1010.91 1010.66 1010.52 1010.25 1010.12 1009.66 1009.29
1009.70 1009.65 1009.27 1008.70 1008.67 1008.58 1008.61 1008.48 1008.37 1008.29 1009.30 1009.43 1010.80 1011.85 1012.08 1013.20 1013.25 1013.15 1012.59 1011.83 1011.64 1011.67 1011.97 1012.19 1012.47 1012.92 1013.18 1013.04 1012.60 1011.98 1011.64 1011.47 1011.36 1011.20 1011.17 1011.03 1010.74 1010.54 1010.39 1010.13 1009.84 1009.44 1008.87
1010.94 1010.26 1009.96 1009.72 1009.78 1009.47 1009.44 1009.49 1009.61 1009.84 1010.79 1010.37 1011.51 1012.41 1013.08 1013.89 1013.90 1013.51 1012.90 1011.93 1012.23 1012.35 1012.83 1013.18 1013.35 1013.52 1013.66 1013.35 1012.85 1012.27 1011.89 1011.52 1011.28 1011.22 1011.05 1010.65 1010.37 1010.13 1009.90 1009.93 1009.58 1009.31 1008.67
1011.33 1010.71 1010.67 1010.56 1010.47 1010.54 1010.36 1010.61 1010.72 1010.99 1010.34 1011.03 1012.00 1012.69 1013.46 1014.19 1014.13 1014.09 1013.65 1013.26 1013.11 1013.29 1013.49 1013.82 1014.00 1014.01 1013.84 1013.65 1013.29 1012.69 1012.25 1012.02 1011.75 1011.12 1010.67 1010.25 1009.96 1009.75 1009.44 1009.51 1009.37 1009.12 1008.77
1011.91 1012.05 1012.02 1011.82 1011.40 1011.09 1011.26 1011.27 1011.29 1011.30 1010.98 1011.76 1012.61 1013.34 1014.14 1014.03 1014.56 1014.55 1014.48 1014.15 1014.16 1013.82 1013.82 1013.98 1014.28 1014.23 1014.00 1013.65 1013.28 1012.95 1012.71 1012.29 1011.57 1010.99 1010.49 1010.17 1009.92 1009.67 1009.36 1009.13 1008.96 1008.85 1008.71
1013.05 1013.34 1013.27 1013.03 1012.50 1012.68 1012.45 1012.43 1012.18 1012.11 1011.73 1012.38 1013.07 1013.72 1014.00 1014.60 1014.74 1014.76 1014.86 1014.78 1014.50 1014.38 1014.49 1014.46 1014.42 1014.24 1013.87 1013.43 1013.11 1012.74 1012.29 1011.77 1011.32 1010.82 1010.57 1010.32 1010.12 1009.86 1009.57 1009.28 1009.04 1008.81 1008.60
1013.72 1013.97 1014.14 1014.54 1014.32 1014.15 1014.02 1013.52 1013.31 1012.90 1012.14 1012.68 1013.04 1013.51 1014.12 1014.76 1015.06 1015.16 1014.94 1015.00 1014.94 1014.86 1014.94 1014.78 1014.45 1014.10 1013.73 1013.27 1012.90 1012.41 1011.97 1011.68 1011.33 1011.11 1010.79 1010.47 1010.19 1009.85 1009.51 1009.17 1008.95 1008.82 1008.88
1014.50 1014.87 1015.10 1015.22 1015.43 1015.31 1014.97 1014.88 1014.80 1014.61 1014.00 1014.02 1014.15 1014.44 1014.88 1015.60 1016.05 1016.01 1015.52 1015.50 1015.50 1015.33 1015.09 1014.95 1014.67 1014.29 1013.75 1013.25 1012.75 1012.52 1012.29 1012.00 1011.79 1011.42 1011.07 1010.64 1010.12 1009.68 1009.42 1009.24 1009.18 1009.28 1009.38
1015.14 1015.62 1015.94 1015.86 1016.17 1016.36 1016.34 1016.02 1016.07 1016.72 1016.43 1016.19 1016.06 1016.24 1016.07 1016.52 1016.97 1016.99 1016.79 1016.50 1016.17 1015.81 1015.36 1015.09 1014.69 1014.33 1014.03 1013.65 1013.27 1013.09 1012.77 1012.32 1011.91 1011.59 1011.20 1010.76 1010.35 1010.04 1009.86 1009.72 1009.72 1009.85 1009.93
1015.58 1015.88 1016.03 1016.11 1016.17 1016.13 1016.70 1017.03 1017.36 1017.29 1017.27 1017.18 1017.04 1016.94 1017.26 1017.36 1017.38 1017.15 1016.97 1016.82 1016.25 1015.68 1015.39 1015.14 1014.88 1014.63 1014.31 1014.03 1013.82 1013.51 1012.97 1012.49 1012.07 1011.67 1011.36 1011.12 1010.90 1010.67 1010.52 1010.41 1010.40 1010.49 1010.55
1015.32 1015.69 1015.62 1015.47 1015.31 1015.61 1016.28 1016.51 1017.23 1017.89 1017.71 1017.72 1017.69 1017.68 1017.64 1017.65 1017.40 1016.98 1016.94 1016.90 1016.49 1015.99 1015.79 1015.61 1015.43 1015.15 1014.88 1014.59 1014.24 1013.80 1013.23 1012.74 1012.36 1012.01 1011.81 1011.61 1011.39 1011.28 1011.17 1011.19 1011.23 1011.27 1011.36
1015.27 1015.40 1015.02 1014.59 1014.84 1015.35 1015.81 1016.27 1016.80 1016.98 1017.45 1017.86 1018.00 1018.05 1017.96 1017.78 1017.58 1017.40 1017.17 1016.82 1016.49 1016.24 1016.14 1015.97 1015.78 1015.55 1015.29 1014.98 1014.61 1014.12 1013.60 1013.19 1012.80 1012.52 1012.32 1012.11 1012.03 1011.98 1011.95 1011.93 1011.93 1012.01 1012.11
1015.43 1015.06 1014.78 1015.17 1015.10 1015.62 1016.40 1016.87 1017.07 1017.46 1017.66 1017.78 1017.96 1018.09 1018.11 1017.84 1017.77 1017.61 1017.32 1017.10 1016.92 1016.64 1016.40 1016.16 1015.99 1015.79 1015.51 1015.20 1014.88 1014.52 1014.15 1013.78 1013.42 1013.04 1012.80 1012.66 1012.63 1012.58 1012.60 1012.67 1012.73 1012.69 1012.65
1015.06 1014.78 1015.37 1015.25 1015.44 1016.24 1017.12 1017.32 1017.51 1017.79 1017.94 1018.22 1018.54 1018.70 1018.60 1018.28 1018.00 1017.86 1017.66 1017.57 1017.31 1017.03 1016.72 1016.45 1016.22 1015.99 1015.76 1015.43 1015.10 1014.75 1014.39 1014.05 1013.74 1013.48 1013.41 1013.31 1013.24 1013.19 1013.18 1013.13 1013.05 1013.05 1013.22
1015.03 1014.29 1015.55 1015.67 1016.33 1017.34 1017.78 1017.82 1018.15 1018.19 1018.32 1018.73 1019.13 1019.36 1019.07 1018.86 1018.63 1018.48 1018.27 1018.06 1017.73 1017.37 1016.97 1016.77 1016.53 1016.29 1016.02 1015.70 1015.27 1014.96 1014.74 1014.53 1014.29 1014.06 1013.86 1013.60 1013.45 1013.37 1013.38 1013.34 1013.20 1013.30 1013.39
1014.67 1014.83 1015.75 1016.65 1017.49 1018.20 1018.47 1018.67 1018.83 1018.77 1018.83 1019.14 1019.58 1019.59 1019.23 1019.09 1019.08 1018.93 1018.59 1018.31 1017.99 1017.65 1017.40 1017.06 1016.63 1016.23 1015.95 1015.74 1015.47 1015.20 1014.96 1014.81 1014.57 1014.31 1014.10 1013.93 1013.80 1013.75 1013.60 1013.42 1013.47 1013.42 1013.28
1015.56 1015.95 1016.87 1017.67 1018.42 1018.93 1019.29 1019.32 1019.42 1019.40 1019.50 1019.86 1020.08 1020.01 1019.75 1019.50 1019.34 1019.16 1018.88 1018.58 1018.22 1017.90 1017.44 1016.98 1016.59 1016.22 1015.79 1015.59 1015.41 1015.28 1015.15 1014.98 1014.61 1014.20 1013.99 1013.66 1013.52 1013.63 1013.47 1013.20 1013.11 1013.34 1013.33
1016.12 1016.90 1017.77 1018.54 1018.98 1019.40 1019.68 1019.82 1019.95 1020.02 1020.16 1020.34 1020.49 1020.30 1019.95 1019.89 1019.72 1019.51 1019.23 1018.74 1018.37 1017.94 1017.43 1016.93 1016.53 1016.30 1016.27 1016.04 1015.64 1015.30 1015.30 1015.34 1014.73 1014.18 1013.76 1013.55 1013.21 1013.05 1013.00 1012.92 1012.96 1013.06 1013.28
1017.35 1018.13 1018.76 1019.26 1019.59 1019.99 1020.20 1020.25 1020.33 1020.39 1020.27 1020.36 1020.45 1020.22 1020.06 1019.91 1019.83 1019.57 1019.29 1018.94 1018.48 1018.08 1017.55 1017.17 1016.77 1016.48 1016.28 1016.36 1016.23 1015.92 1015.79 1015.32 1014.83 1014.45 1013.79 1013.34 1013.19 1012.97 1012.84 1012.90 1012.83 1013.07 1013.30
1018.56 1019.14 1019.44 1019.84 1020.22 1020.43 1020.69 1020.80 1020.80 1020.75 1020.68 1020.56 1020.42 1020.32 1020.18 1020.14 1020.00 1019.64 1019.43 1019.12 1018.87 1018.46 1017.89 1017.56 1017.30 1017.25 1017.05 1016.86 1016.78 1016.44 1015.97 1015.42 1014.92 1014.31 1013.83 1013.35 1013.21 1013.17 1013.00 1012.97 1012.96 1013.05 1013.14
Wind_Speed
11 10 11 6 6 4 3 2 2 1 2 4 4 3 4 4 3 5 3 2 5 5 6 6 5 6 4 3 4 3 4 3 4 4 2 2 4 5 5 6 6 5 5
11 10 9 10 4 2 2 3 3 3 4 3 4 4 6 7 6 4 4 3 3 2 4 4 6 5 5 6 3 5 6 7 6 7 5 7 4 6 7 8 7 7 6
11 8 8 8 5 6 2 2 4 4 6 7 8 7 3 11 12 11 12 10 8 6 6 10 10 9 8 7 6 7 7 6 6 6 7 9 8 7 6 4 6 8 5
14 12 11 7 7 4 7 4 4 5 5 4 1 13 13 13 13 12 12 11 10 8 10 8 9 9 9 8 7 8 7 6 6 6 6 6 4 6 4 5 6 5 7
14 15 13 11 5 7 5 6 5 5 5 4 8 14 13 13 12 13 12 11 9 7 7 9 9 10 12 9 5 4 5 5 5 5 6 6 6 5 4 3 4 5 8
12 15 17 13 5 5 6 5 5 5 6 8 15 15 13 11 15 17 13 9 9 8 8 8 5 12 10 13 14 16 11 7 7 4 5 5 5 4 3 4 5 2 3
12 14 15 12 10 7 9 7 6 4 5 7 12 14 13 11 19 17 19 7 5 6 6 5 7 8 11 9 13 15 6 6 7 5 5 5 7 5 4 5 6 5 3
11 15 13 12 14 12 12 14 16 10 8 13 14 13 12 9 16 16 19 4 3 4 6 7 9 7 10 10 8 8 6 5 5 4 5 7 6 6 6 6 5 5 6
19 11 12 12 10 8 10 11 11 9 5 11 10 10 11 10 13 17 15 8 9 10 10 10 9 9 11 13 9 8 8 5 8 14 12 11 10 11 8 3 5 3 3
15 16 10 9 6 7 8 10 8 6 8 7 9 10 13 9 11 14 15 9 9 7 6 6 12 9 11 10 8 7 7 7 8 9 7 7 6 7 9 5 4 2 2
16 13 9 6 3 7 8 8 7 6 5 5 11 10 8 8 8 11 12 8 7 5 5 5 5 10 9 9 8 4 6 8 10 7 6 3 5 5 4 2 4 3 3
12 11 13 13 12 9 10 8 8 6 5 8 9 7 5 8 11 10 8 7 13 6 5 5 5 8 9 9 7 9 10 9 5 4 5 4 4 4 5 5 5 4 4
9 11 11 10 10 10 10 9 8 9 6 7 5 6 8 8 9 14 4 8 12 6 5 7 8 9 9 5 10 8 8 5 5 5 5 4 4 5 5 4 3 4 7
10 8 6 7 6 7 4 8 9 10 9 9 8 8 8 8 8 8 8 8 9 6 7 7 9 9 7 4 6 7 6 6 4 4 5 5 4 3 2 2 2 4 5
8 6 4 4 4 8 9 8 9 11 10 8 8 8 7 8 6 7 7 7 6 6 4 3 4 5 5 6 6 6 6 5 5 6 5 5 4 5 6 4 5 5 5
7 2 1 2 3 5 8 9 12 11 13 13 14 10 8 8 6 6 6 9 12 13 5 6 6 6 6 6 5 5 4 7 6 5 5 5 5 5 5 5 6 6 6
5 2 4 5 4 4 5 6 7 6 9 9 9 10 8 5 6 8 5 4 7 8 6 6 6 7 6 6 5 5 5 6 6 5 5 5 5 6 6 6 6 6 7
1 4 7 4 5 9 6 7 6 5 5 5 6 7 7 8 9 8 6 4 7 7 5 5 6 6 5 5 5 6 6 6 5 5 5 4 5 6 6 6 6 7 7
2 5 3 4 8 9 9 8 5 7 4 4 6 5 9 9 6 9 9 6 6 7 6 6 5 5 5 5 5 5 5 5 4 4 5 6 6 5 6 6 6 6 5
4 11 2 3 8 10 8 5 8 5 5 8 8 8 7 6 6 7 7 6 6 6 6 6 5 4 5 5 5 4 4 5 5 5 5 5 5 5 5 4 4 5 6
6 2 8 9 10 10 6 7 6 5 6 6 7 7 6 5 6 6 6 6 6 7 7 6 5 5 4 4 4 4 4 4 5 4 3 2 2 3 2 2 3 3 3
3 10 11 11 10 7 6 7 5 4 6 8 6 5 6 6 6 6 5 5 5 5 4 4 4 4 2 3 4 5 5 5 4 2 2 1 1 2 1 0 1 2 2
12 11 11 9 8 6 7 7 4 5 7 8 6 7 7 6 6 6 6 6 5 4 5 4 4 4 4 4 2 2 4 4 4 4 4 4 2 4 4 3 2 2 4
11 12 11 9 7 7 6 6 5 6 7 6 4 6 6 4 5 5 6 4 4 4 5 5 4 6 4 5 5 6 6 6 5 5 6 3 4 2 2 2 2 6 4
11 11 8 7 7 7 6 5 4 4 4 5 2 2 5 4 3 4 4 6 4 4 6 7 5 7 9 12 11 11 10 7 4 6 5 5 4 4 4 3 3 4 4
11 8 7 7 7 7 5 4 4 4 4 3 3 4 4 4 3 6 4 5 5 6 7 4 9 13 13 10 11 10 10 10 10 11 5 3 4 4 3 4 6 3 4
Wind_Direction
2 355 346 351 45 60 113 83 83 51 102 112 118 145 138 137 203 233 270 177 207 228 238 243 253 249 258 294 299 335 6 360 326 323 299 349 8 31 8 1 340 314 308
351 344 350 336 6 99 19 134 165 155 174 133 173 176 189 201 190 207 218 255 269 335 294 355 39 29 27 28 20 9 21 20 348 347 357 338 347 345 320 301 285 284 273
338 328 330 328 325 306 287 216 231 219 198 210 212 210 98 47 33 20 23 16 9 24 40 47 44 39 33 17 9 20 9 2 348 328 323 314 311 305 303 310 347 336 283
334 331 324 314 296 288 297 280 239 228 255 258 342 71 62 50 33 15 7 1 357 7 57 78 61 50 42 20 12 20 2 336 335 317 312 310 330 327 333 343 334 336 333
329 325 322 320 319 303 300 300 288 278 268 238 81 75 67 53 31 14 359 349 341 354 44 53 67 59 54 47 14 354 326 333 317 319 322 327 329 338 326 313 308 314 309
321 316 311 312 307 284 289 282 280 281 356 11 76 75 68 57 28 19 4 327 337 38 37 33 22 54 34 23 360 351 342 343 331 318 306 296 298 293 285 299 288 311 315
308 309 307 320 341 334 303 289 262 113 60 71 94 86 71 46 28 7 350 318 34 46 47 31 15 48 29 8 351 322 12 328 311 312 298 299 306 317 321 307 300 293 246
314 351 339 342 354 13 34 41 20 26 73 80 82 82 72 43 27 6 344 1 102 63 53 44 46 55 24 0 335 319 344 336 347 334 344 318 317 319 303 296 308 296 286
331 329 352 5 7 25 64 72 87 103 101 86 100 103 91 53 27 15 356 350 45 54 59 46 32 26 5 2 334 342 344 352 357 354 326 304 305 300 273 282 282 272 292
343 349 19 6 27 53 64 63 61 54 68 95 98 91 81 73 42 29 8 25 30 15 83 75 42 24 8 345 328 346 339 355 335 317 310 309 288 296 286 232 266 285 307
16 14 14 6 30 64 55 51 49 40 43 49 90 87 82 68 68 55 24 28 10 359 27 21 49 4 336 319 323 344 332 317 312 299 315 337 345 331 320 300 248 232 299
31 31 27 19 27 21 34 31 32 357 310 98 113 112 112 92 51 43 37 44 17 22 21 12 6 336 325 319 334 332 319 321 303 353 350 341 338 331 328 332 344 358 4
48 43 40 31 31 28 22 7 21 359 6 105 80 69 73 51 39 12 29 38 35 28 10 354 356 354 346 354 349 356 360 347 352 3 341 335 322 306 298 300 344 60 53
60 57 59 56 33 28 7 43 34 19 17 34 30 28 67 56 34 14 14 33 26 19 353 25 15 11 359 340 19 19 356 355 12 337 331 321 309 314 324 359 54 83 55
68 60 56 68 63 66 51 37 66 50 41 47 46 41 39 48 29 6 15 8 346 333 350 360 1 9 14 13 11 6 1 347 335 333 335 343 350 10 42 30 58 59 65
78 64 238 157 189 124 97 84 52 72 61 57 52 48 77 63 17 358 360 352 343 10 23 8 8 8 11 3 2 348 331 338 337 340 355 8 14 28 31 44 54 56 61
94 234 241 235 234 127 129 112 104 67 72 73 73 65 56 25 349 352 16 352 358 10 22 10 7 6 1 4 357 347 335 346 349 360 15 18 18 33 41 54 51 59 62
130 271 287 304 80 103 112 81 68 76 75 100 68 64 37 8 1 35 84 29 17 17 13 5 4 360 355 352 348 349 357 359 3 7 15 21 38 47 53 49 52 66 68
306 292 312 13 78 78 69 74 72 78 64 57 59 33 22 356 313 316 26 31 11 10 7 9 7 2 357 351 349 347 344 347 346 7 27 37 43 46 52 58 67 56 65
255 251 289 109 80 71 74 73 76 70 67 53 45 33 19 14 23 24 31 19 11 4 1 2 359 356 352 351 347 347 355 5 6 21 37 46 46 51 59 47 33 67 79
281 27 68 72 67 70 72 71 72 73 74 80 51 31 0 35 30 27 21 6 5 4 2 6 4 3 359 349 337 347 9 10 16 19 35 47 103 104 80 67 30 49 96
310 73 72 65 64 69 71 71 68 55 53 69 57 24 356 46 33 22 6 360 352 359 357 348 343 326 314 326 331 5 14 16 6 3 352 11 54 129 216 181 323 297 335
80 75 77 77 83 86 79 76 75 60 57 67 51 43 41 31 26 22 11 11 4 355 335 328 325 335 18 33 74 58 10 344 314 298 306 291 164 191 224 237 173 187 86
66 70 74 69 70 77 78 90 84 52 75 73 51 39 33 34 30 18 21 352 345 335 333 337 344 5 52 27 7 8 13 358 321 332 328 325 345 229 288 109 33 96 96
69 73 71 69 79 89 86 67 79 64 67 83 72 25 65 64 22 352 349 4 359 359 8 8 355 9 38 29 12 6 356 342 334 325 330 334 21 28 59 61 67 117 125
74 73 77 75 76 82 80 68 72 42 27 54 42 38 35 66 12 32 9 8 7 3 351 358 35 31 16 21 9 1 355 349 352 350 336 354 32 39 30 68 72 56 98